Location: Grange Rosano
(44.4500°N, 6.9667°E)
Time: 21:24:33
(UTC+00:00)

CZ-2D R/B - Pass Details

Date: 26 May 2022
Orbit: 791 x 845 km, 98.7° (Epoch: 01 July)

Event Time Altitude Azimuth Distance (km) Brightness Sun altitude
Rises 02:33:13 0° 2° (N) 3,381 6.1 -12.1°
Reaches altitude 10° 02:36:04 10° 347° (NNW) 2,433 5.1 -11.8°
Maximum altitude 02:40:03 22° 299° (WNW) 1,733 3.7 -11.3°
Enters shadow 02:43:49 11° 252° (WSW) 2,343 4.0 -10.8°
